Weather History for KLFT - November, 2011

Change the Weather History Date:

Tuesday, November 15, 2011

  Actual Average Record
Temperature  
Mean Temperature 73 °F 62 °F  
Max Temperature 83 °F 73 °F 86 °F (1951)
Min Temperature 63 °F 51 °F 25 °F (1916)
Degree Days  
Heating Degree Days 0 5  
Month to date heating degree days 67 59  
Since 1 July heating degree days 121 95  
Cooling Degree Days 7    
Growing Degree Days 22 (Base 50)    
Moisture  
Dew Point 68 °F    
Average Humidity 79    
Maximum Humidity 100    
Minimum Humidity 58    
Precipitation  
Precipitation 0.74 in 0.13 in 5.68 in (1993)
Month to date precipitation 1.41 2.22  
Year to date precipitation 32.07 52.79  
Snow  
Snow 0.00 in 0.00 in 0.00 in ()
Month to date snowfall 0.0 0.0  
Since 1 July snowfall 0.0 0.0  
Since 1 September snowfall 0.0 0.0  
Snow Depth 0.00 in    
Sea Level Pressure  
Sea Level Pressure 29.84 in    
Wind  
Wind Speed 6 mph (South)    
Max Wind Speed 17 mph    
Max Gust Speed 24 mph    
Visibility 5 miles    
Events Fog , Rain , Thunderstorm    
T = Trace of Precipitation, MM = Missing Value Source: NWS Daily Summary

Daily Weather History Graph

Daily Weather History Graph

Search for Another Location

Airport or City:

Trip Planner

Search our weather history database for the weather conditions in past years. The results will help you decide how hot, cold, wet, or windy it might be!

Date:

Astronomy

Nov. 15, 2011 Rise Set
Actual Time 6:33 AM CST 5:11 PM CST
Civil Twilight 6:07 AM CST 5:36 PM CST
Nautical Twilight 5:38 AM CST 6:05 PM CST
Astronomical Twilight 5:10 AM CST 6:34 PM CST
Moon 9:21 PM CST (11/15) 10:30 AM CST (11/15)
Length of Visible Light 11h 29m
Length of Day
10h 38m
Waning Gibbous, 79% of the Moon is Illuminated
Nov 15
Waning Gibbous
Nov 18
Last Quarter
Nov 25
New
Dec 2
First Quarter
Dec 10
Full

Hourly Weather History & Observations

Time (CST) Temp. Heat Index Dew Point Humidity Pressure Visibility Wind Dir Wind Speed Gust Speed Precip Events Conditions
12:53 AM 69.1 °F - 66.0 °F 90% 29.86 in 10.0 mi SSE 9.2 mph 16.1 mph 0.01 in   Clear
1:53 AM 66.9 °F - 64.9 °F 93% 29.88 in 10.0 mi Calm Calm - N/A   Clear
2:53 AM 64.9 °F - 64.0 °F 97% 29.87 in 4.0 mi Calm Calm - N/A   Clear
3:06 AM 64.4 °F - 62.6 °F 94% 29.86 in 1.5 mi Calm Calm - N/A   Clear
3:15 AM 64.4 °F - 62.6 °F 94% 29.86 in 0.5 mi Calm Calm - N/A Fog Fog
3:27 AM 62.6 °F - 62.6 °F 100% 29.85 in 2.0 mi SSE 3.5 mph - N/A   Clear
3:53 AM 64.9 °F - 64.0 °F 97% 29.86 in 3.0 mi Calm Calm - N/A   Clear
3:58 AM 64.4 °F - 64.4 °F 100% 29.85 in 1.8 mi Calm Calm - N/A   Clear
4:08 AM 64.4 °F - 64.4 °F 100% 29.86 in 2.0 mi Calm Calm - N/A   Partly Cloudy
4:14 AM 64.4 °F - 64.4 °F 100% 29.86 in 3.0 mi Calm Calm - N/A   Mostly Cloudy
4:49 AM 66.2 °F - 66.2 °F 100% 29.85 in 3.0 mi Calm Calm - N/A   Overcast
4:53 AM 66.0 °F - 66.0 °F 100% 29.86 in 2.5 mi Calm Calm - N/A   Overcast
5:09 AM 66.2 °F - 66.2 °F 100% 29.86 in 1.2 mi Calm Calm - N/A   Overcast
5:20 AM 66.2 °F - 66.2 °F 100% 29.86 in 0.5 mi Calm Calm - N/A Fog Fog
5:53 AM 66.9 °F - 66.0 °F 97% 29.86 in 0.5 mi Calm Calm - N/A Fog Fog
6:01 AM 66.2 °F - 66.2 °F 100% 29.86 in 1.0 mi Calm Calm - N/A   Overcast
6:53 AM 66.2 °F - 66.2 °F 100% 29.88 in 0.2 mi Calm Calm - N/A Fog Fog
7:13 AM 66.2 °F - 66.2 °F 100% 29.89 in 0.2 mi Calm Calm - N/A Fog Fog
7:17 AM 66.2 °F - 66.2 °F 100% 29.89 in 0.5 mi Calm Calm - N/A Fog Fog
7:40 AM 68.0 °F - 66.2 °F 94% 29.89 in 0.2 mi Calm Calm - N/A Fog Fog
7:53 AM 68.0 °F - 68.0 °F 100% 29.89 in 0.2 mi Calm Calm - N/A Fog Fog
8:00 AM 69.8 °F - 68.0 °F 94% 29.89 in 0.2 mi Calm Calm - N/A Fog Fog
8:21 AM 69.8 °F - 69.8 °F 100% 29.89 in 0.2 mi Calm Calm - N/A Fog Fog
8:28 AM 69.8 °F - 69.8 °F 100% 29.89 in 1.0 mi Calm Calm - N/A   Mostly Cloudy
8:35 AM 69.8 °F - 69.8 °F 100% 29.90 in 3.0 mi Variable 3.5 mph - N/A   Mostly Cloudy
8:48 AM 71.6 °F - 69.8 °F 94% 29.90 in 3.0 mi Calm Calm - N/A   Mostly Cloudy
8:53 AM 73.0 °F - 70.0 °F 90% 29.90 in 9.0 mi South 4.6 mph - N/A   Mostly Cloudy
9:17 AM 75.2 °F - 69.8 °F 83% 29.90 in 10.0 mi South 8.1 mph - N/A   Scattered Clouds
9:50 AM 77.0 °F - 69.8 °F 78% 29.90 in 10.0 mi South 8.1 mph - N/A   Mostly Cloudy
9:53 AM 77.0 °F - 70.0 °F 79% 29.90 in 10.0 mi South 9.2 mph - N/A   Mostly Cloudy
10:53 AM 80.1 °F 82.7 °F 68.0 °F 67% 29.89 in 10.0 mi SSW 13.8 mph - N/A   Scattered Clouds
11:53 AM 82.0 °F 84.5 °F 66.9 °F 60% 29.87 in 10.0 mi South 11.5 mph - N/A   Scattered Clouds
12:53 PM 82.0 °F 84.1 °F 66.0 °F 58% 29.84 in 10.0 mi South 11.5 mph 18.4 mph N/A   Mostly Cloudy
1:53 PM 82.0 °F 84.9 °F 68.0 °F 62% 29.81 in 10.0 mi South 11.5 mph - N/A   Partly Cloudy
2:53 PM 82.0 °F 84.9 °F 68.0 °F 62% 29.78 in 10.0 mi South 12.7 mph 21.9 mph N/A   Scattered Clouds
3:53 PM 80.1 °F 82.7 °F 68.0 °F 67% 29.79 in 10.0 mi South 12.7 mph - N/A   Clear
4:53 PM 78.1 °F - 70.0 °F 76% 29.78 in 10.0 mi South 9.2 mph - N/A   Scattered Clouds
5:18 PM 77.0 °F - 71.6 °F 83% 29.79 in 10.0 mi South 8.1 mph - N/A   Mostly Cloudy
5:50 PM 75.2 °F - 71.6 °F 89% 29.78 in 10.0 mi Variable 3.5 mph - N/A   Overcast
5:53 PM 75.9 °F - 72.0 °F 87% 29.79 in 10.0 mi SSE 4.6 mph - N/A   Overcast
6:04 PM 75.2 °F - 71.6 °F 89% 29.78 in 10.0 mi Variable 3.5 mph - N/A   Overcast
6:11 PM 75.2 °F - 69.8 °F 83% 29.79 in 1.8 mi SW 13.8 mph 24.2 mph 0.17 in Rain Heavy Rain
6:22 PM 71.6 °F - 69.8 °F 94% 29.79 in 2.0 mi South 9.2 mph - 0.30 in Rain Light Rain
6:24 PM 71.6 °F - 69.8 °F 94% 29.79 in 4.0 mi South 8.1 mph - 0.30 in Rain Light Rain
6:53 PM 72.0 °F - 69.1 °F 91% 29.80 in 10.0 mi South 3.5 mph - 0.30 in   Mostly Cloudy
7:01 PM 71.6 °F - 69.8 °F 94% 29.80 in 10.0 mi Calm Calm - N/A Thunderstorm Mostly Cloudy
7:45 PM 73.4 °F - 69.8 °F 88% 29.80 in 10.0 mi South 5.8 mph - N/A Thunderstorm Overcast
7:53 PM 72.0 °F - 69.1 °F 91% 29.79 in 10.0 mi South 6.9 mph - N/A Thunderstorm Mostly Cloudy
8:05 PM 73.4 °F - 69.8 °F 88% 29.79 in 10.0 mi South 5.8 mph - N/A   Mostly Cloudy
8:13 PM 73.4 °F - 69.8 °F 88% 29.79 in 10.0 mi South 6.9 mph - 0.00 in Rain Light Rain
8:53 PM 72.0 °F - 70.0 °F 93% 29.79 in 6.0 mi South 10.4 mph 18.4 mph 0.04 in Rain Rain
9:06 PM 71.6 °F - 69.8 °F 94% 29.79 in 1.8 mi SSE 11.5 mph 24.2 mph 0.14 in Rain Heavy Rain
9:14 PM 71.6 °F - 68.0 °F 88% 29.79 in 3.0 mi South 10.4 mph 19.6 mph 0.17 in Rain Light Rain
9:53 PM 71.1 °F - 69.1 °F 93% 29.81 in 3.0 mi SSW 6.9 mph - 0.24 in Rain Rain
10:05 PM 71.6 °F - 68.0 °F 88% 29.81 in 2.5 mi South 6.9 mph - 0.07 in Rain Heavy Rain
10:15 PM 71.6 °F - 69.8 °F 94% 29.80 in 4.0 mi SSE 5.8 mph - 0.10 in Rain Rain
10:24 PM 71.6 °F - 69.8 °F 94% 29.81 in 5.0 mi South 5.8 mph - 0.11 in Rain Light Rain
10:31 PM 71.6 °F - 69.8 °F 94% 29.80 in 3.0 mi South 6.9 mph - 0.13 in Rain Heavy Rain
10:53 PM 71.1 °F - 69.1 °F 93% 29.78 in 10.0 mi SSE 5.8 mph - 0.13 in   Overcast
11:53 PM 71.1 °F - 69.1 °F 93% 29.78 in 10.0 mi South 6.9 mph - 0.02 in   Mostly Cloudy